Regional Weather Roundup
Issued by NWS Little Rock, AR

Home | Current Version | Previous Version | Text Only | Print | Product List | Glossary On
Versions: 1 2 3 4 5 6 7 8 9 10 11 12 13 14 15 16 17 18 19 20 21 22 23 24 25 26 27 28
000
ASUS44 KLZK 191005
RWRLZK

WEATHER ROUNDUP FOR ARKANSAS
NATIONAL WEATHER SERVICE LITTLE ROCK AR
500 AM CDT SAT APR 19 2014

NOTE: "FAIR" INDICATES FEW OR NO CLOUDS BELOW 12,000 FEET WITH NO
SIGNIFICANT WEATHER AND/OR OBSTRUCTIONS TO VISIBILITY.

ARZ001-003-010-029-191100-
NORTHWEST ARKANSAS

CITY           SKY/WX    TMP DP  RH WIND       PRES   REMARKS
FAYETTEVILLE   CLEAR     44  43  96 CALM      30.20S
FORT SMITH     CLEAR     53  47  79 NE3       30.18S
HARRISON       CLEAR     50  41  71 CALM      30.21R
BENTONVILLE    CLEAR     50  41  71 SE5       30.20S
ROGERS         CLEAR     51  45  79 SE3       30.20S
SILOAM SPGS    CLEAR     52  37  58 SE6       30.19S
HIGHFILL       CLEAR     51  43  74 S3        30.19S
$$

ARZ004-005-016-191100-
NORTH CENTRAL ARKANSAS

CITY           SKY/WX    TMP DP  RH WIND       PRES   REMARKS
BATESVILLE     CLEAR     48  45  87 W5        30.19S
FLIPPIN        CLEAR     45  36  70 CALM      30.21S
MTN HOME       CLEAR     52  40  63 CALM      30.20S
$$

ARZ040-041-191100-
WEST CENTRAL ARKANSAS

CITY           SKY/WX    TMP DP  RH WIND       PRES   REMARKS
MENA           CLEAR     45  45 100 CALM      30.19R
MOUNT IDA      CLEAR     45  44  97 CALM      30.16S
$$

ARZ009-017-025-026-028-191100-
NORTHEAST ARKANSAS

CITY           SKY/WX    TMP DP  RH WIND       PRES   REMARKS
CORNING        FAIR      50  45  81 NE7       30.21S
JONESBORO      CLEAR     53  44  71 NE6       30.18F
NEWPORT        CLEAR     52  48  86 CALM      30.20S
WALNUT RIDGE   CLEAR     52  43  71 N6        30.19S
BLYTHEVILLE    CLEAR     51  48  89 N3        30.20R
$$

ARZ022-023-033-042-044-191100-
CENTRAL ARKANSAS

CITY           SKY/WX    TMP DP  RH WIND       PRES   REMARKS
LITTLE ROCK    PTCLDY    53  49  86 CALM      30.19R
N LITTLE ROCK    N/A     55  52  88 CALM      30.19R
JACKSONVILLE   CLEAR     48  47  94 W1        30.18S
SEARCY         CLEAR     49  47  93 CALM      30.19F
HOT SPRINGS    CLEAR     48  45  89 CALM      30.19R
RUSSELLVILLE   CLEAR     47  45  93 CALM      30.19R
CLINTON        FAIR      45  45 100 CALM      30.21S FOG
$$

ARZ036-191100-
EAST ARKANSAS

CITY           SKY/WX    TMP DP  RH WIND       PRES   REMARKS
WEST MEMPHIS   FOG       52  52 100 N5        30.17F VSB 1
$$

ARZ050-053-066-070-073-191100-
SOUTHWEST ARKANSAS

CITY           SKY/WX    TMP DP  RH WIND       PRES   REMARKS
ARKADELPHIA    FAIR      49  49 100 CALM      30.19R
CAMDEN         CLEAR     48  45  87 MISG      30.18R FOG
TEXARKANA      PTCLDY    51  49  92 NE3       30.16S
EL DORADO      CLEAR     49  47  93 CALM      30.17R
DE QUEEN       CLEAR     47  46  97 E3        30.16R FOG
$$

ARZ056-057-069-191100-
SOUTHEAST ARKANSAS

CITY           SKY/WX    TMP DP  RH WIND       PRES   REMARKS
PINE BLUFF     CLEAR     51  49  92 CALM      30.18R
STUTTGART      CLEAR     57  50  77 E5        30.17F
MONTICELLO     CLEAR     50  48  93 CALM      30.17R

$$





USA.gov is the U.S. government's official web portal to all federal, state and local government web resources and services.